WX4SKY Weather Reports


time (UTC)temp
C
wind
direction
speed
KPH
gust
KPH
rain 1hr
cm
rain 24hr
cm
rain mn
cm
humidity
%
barometer
mb
20260906131601 22 0 0.0 0.0 0.00 0.18 0.00 97 1014.8
20260906130114 22 0 0.0 0.0 0.00 0.18 0.00 97 1014.9
20260906124608 22 0 0.0 0.0 0.00 0.18 0.00 96 1014.9
20260906123108 21 0 0.0 0.0 0.00 0.18 0.00 96 1014.7
20260906121625 21 0 0.0 0.0 0.00 0.18 0.00 96 1014.7
20260906120110 21 0 0.0 0.0 0.00 0.18 0.00 96 1014.5
20260906114622 21 0 0.0 0.0 0.00 0.18 0.00 96 1014.5
20260906113114 21 0 0.0 0.0 0.00 0.18 0.00 96 1014.6
20260906111558 21 0 0.0 0.0 0.00 0.18 0.00 96 1014.4
20260906110108 21 0 0.0 0.0 0.00 0.18 0.00 96 1014.3
20260906104604 21 0 0.0 0.0 0.00 0.18 0.00 95 1014.4
20260906103106 21 0 0.0 0.0 0.00 0.18 0.00 95 1014.3
20260906101606 21 0 0.0 0.0 0.00 0.18 0.00 95 1014.2
20260906100112 21 0 0.0 0.0 0.00 0.18 0.00 95 1014.1
20260906094601 21 0 0.0 0.0 0.00 0.18 0.00 95 1014.1
20260906093109 21 0 0.0 0.0 0.00 0.18 0.00 95 1013.9
20260906091619 21 0 0.0 0.0 0.00 0.18 0.00 95 1013.9
20260906090111 21 0 0.0 0.0 0.00 0.18 0.00 95 1014.1
20260906084605 21 0 0.0 0.0 0.00 0.18 0.00 95 1014.1
20260906083058 21 0 0.0 0.0 0.00 0.18 0.00 95 1014.0
20260906081604 21 0 0.0 0.0 0.00 0.18 0.00 95 1013.8
20260906080111 21 0 0.0 0.0 0.00 0.18 0.00 95 1013.6
20260906074601 21 0 0.0 0.0 0.00 0.18 0.00 95 1013.7
20260906073104 21 0 0.0 0.0 0.00 0.18 0.00 95 1013.8
20260906071616 21 0 0.0 0.0 0.00 0.18 0.00 95 1013.8
20260906070109 21 0 0.0 0.0 0.00 0.18 0.00 95 1013.7
20260906064602 21 0 0.0 0.0 0.00 0.18 0.00 95 1013.9
20260906063106 22 0 0.0 0.0 0.00 0.18 0.00 94 1014.1
20260906061606 22 0 0.0 0.0 0.00 0.18 0.00 95 1014.2
20260906060155 22 0 0.0 0.0 0.00 0.18 0.00 95 1014.3
20260906054616 22 0 0.0 0.0 0.00 0.18 0.00 95 1014.2
20260906053105 22 0 0.0 0.0 0.00 0.18 0.00 94 1014.2
20260906051606 22 0 0.0 0.0 0.00 0.18 0.00 94 1014.4
20260906050116 22 0 0.0 0.0 0.00 0.18 0.00 94 1014.3
20260906044558 22 0 0.0 0.0 0.00 0.18 0.00 94 1014.3
20260906043112 22 0 0.0 0.0 0.00 0.18 0.00 94 1014.3
20260906041604 22 0 0.0 0.0 0.00 0.18 0.00 94 1014.2
20260906040106 22 0 0.0 0.0 0.00 0.18 0.00 93 1014.2
20260906034603 22 0 0.0 0.0 0.03 0.18 0.18 93 1014.3
20260906033107 22 0 0.0 0.0 0.13 0.18 0.18 93 1014.3
20260906031630 22 0 0.0 0.0 0.15 0.18 0.18 93 1014.6
20260906030104 22 0 0.0 0.0 0.18 0.18 0.18 92 1015.0
20260906024605 22 0 0.0 1.6 0.15 0.15 0.15 92 1015.6
20260906023113 22 0 0.0 1.6 0.05 0.05 0.05 90 1015.4
20260906021610 23 0 0.0 0.0 0.03 0.03 0.03 86 1015.5
20260906020109 25 0 1.6 8.0 0.00 0.00 0.00 81 1015.2
20260906014611 25 0 0.0 0.0 0.00 0.00 0.00 82 1015.6
20260906013108 25 0 0.0 0.0 0.00 0.00 0.00 81 1014.7
20260906011614 25 0 0.0 0.0 0.00 0.00 0.00 81 1014.7
20260906010109 25 0 0.0 0.0 0.00 0.00 0.00 81 1014.5
20260906004608 25 141 0.0 0.0 0.00 0.00 0.00 80 1014.1
20260906003105 26 0 1.6 4.8 0.00 0.00 0.00 78 1013.7
20260906001611 27 0 1.6 8.0 0.00 0.00 0.00 75 1014.2
20260906000110 28 119 4.8 12.9 0.00 0.00 0.00 72 1014.3
20260905234601 29 159 0.0 3.2 0.00 0.00 0.00 76 1013.1
20260905233107 29 0 0.0 0.0 0.00 0.00 0.00 75 1012.8
20260905231619 30 0 0.0 1.6 0.00 0.00 0.00 74 1013.1
20260905230112 30 0 0.0 1.6 0.00 0.00 0.00 71 1013.2
20260905224606 31 212 0.0 4.8 0.00 0.00 0.00 70 1013.4
20260905223105 32 202 0.0 4.8 0.00 0.00 0.00 69 1013.3
20260905221631 32 198 0.0 4.8 0.00 0.00 0.00 68 1013.2
20260905220111 33 0 0.0 3.2 0.00 0.00 0.00 65 1013.1
20260905214608 33 210 1.6 4.8 0.00 0.00 0.00 64 1013.1
20260905213106 34 0 1.6 6.4 0.00 0.00 0.00 64 1013.2
20260905211605 34 196 0.0 6.4 0.00 0.00 0.00 62 1013.0
20260905210116 34 205 1.6 11.3 0.00 0.00 0.00 61 1013.0
20260905204612 35 154 1.6 6.4 0.00 0.00 0.00 61 1013.2
20260905203102 36 231 1.6 4.8 0.00 0.00 0.00 52 1013.1
20260905201610 35 0 0.0 1.6 0.00 0.00 0.00 53 1013.4
20260905200130 35 0 0.0 1.6 0.00 0.00 0.00 53 1013.6
20260905194604 36 0 0.0 6.4 0.00 0.00 0.00 49 1013.9
20260905193058 36 136 1.6 4.8 0.00 0.00 0.00 51 1014.0
20260905191557 35 211 3.2 6.4 0.00 0.00 0.00 52 1014.1
20260905190104 35 216 3.2 4.8 0.00 0.00 0.00 52 1014.2
20260905184609 34 0 0.0 3.2 0.00 0.00 0.00 59 1014.2
20260905183105 35 136 0.0 6.4 0.00 0.00 0.00 56 1014.2
20260905181603 35 0 0.0 0.0 0.00 0.00 0.00 55 1014.5
20260905180116 35 229 0.0 4.8 0.00 0.00 0.00 57 1014.7
20260905174600 35 106 1.6 6.4 0.00 0.00 0.00 52 1014.9
20260905173131 35 179 1.6 4.8 0.00 0.00 0.00 52 1015.0
20260905171606 35 183 1.6 6.4 0.00 0.00 0.00 57 1015.3
20260905170106 33 156 0.0 4.8 0.00 0.00 0.00 57 1015.5
20260905164615 32 203 0.0 4.8 0.00 0.00 0.00 63 1015.7
20260905163111 32 142 1.6 6.4 0.00 0.00 0.00 61 1015.9
20260905161608 32 210 0.0 4.8 0.00 0.00 0.00 60 1016.1
20260905160106 32 153 1.6 6.4 0.00 0.00 0.00 62 1016.0
20260905154606 31 157 1.6 9.7 0.00 0.00 0.00 63 1016.1
20260905153104 31 0 1.6 6.4 0.00 0.00 0.00 65 1016.2
20260905151605 31 0 1.6 6.4 0.00 0.00 0.00 67 1016.4
20260905150104 30 0 0.0 4.8 0.00 0.00 0.00 70 1016.2
20260905144605 29 0 0.0 4.8 0.00 0.00 0.00 71 1016.4
20260905143105 28 0 0.0 3.2 0.00 0.00 0.00 74 1016.6
20260905141605 27 169 1.6 4.8 0.00 0.00 0.00 82 1016.6
20260905140112 26 0 0.0 0.0 0.00 0.00 0.00 87 1016.6
20260905134606 26 0 0.0 1.6 0.00 0.00 0.00 88 1016.6
20260905133059 24 0 0.0 0.0 0.00 0.00 0.00 92 1016.8